Flag Weather past 2 weeks in York, England, United Kingdom

Now
45 °F

Mixture of precip. More clouds than sun.


Feels Like: 41 °F
Forecast: N/A
Wind: 7 mph from Northeast

Location: Linton-On-Ouse

Current Time: Nov 26, 2014 at 4:54:07 PM

Latest Report: Nov 26, 2014 at 3:50 PM


Visibility: 2 mi

Pressure: 29.86 "Hg

Humidity: 100%

Dew point: 45 °F

Location of YorkLocation

Historic Weather in York — Graph

°F

York temperature yesterday

Maximum temperature yesterday: 39 °F (at 12:50 PM)
Minimum temperature yesterday: 30 °F (at 7:50 AM)
Average temperature yesterday: 36 °F

Past Weeks' High & Low Weather Summary

 TemperatureHumidityPressure
High55 °F (Nov 22, 1:50 PM)100% (Nov 13, 9:50 AM)30.30 "Hg (Nov 13, 9:50 AM)
Low30 °F (Nov 25, 7:50 AM)76% (Nov 23, 1:50 PM)29.30 "Hg (Nov 12, 12:50 AM)
Average46 °F93%29.84 "Hg
* Reported Nov 11 3:50 PM — Nov 26 3:50 PM, York, Weather by CustomWeather, © 2014

Note: Actual official high and low records may vary slightly from our data, if they occured in-between our weather recording intervals... More about our weather records

Advertising

York weather history for previous 24 hours

 ConditionsComfort  
Time TempWeatherWind HumidityBarometerVisibility
3:50 PM
Nov 26
45 °FMixture of precip. More clouds than sun.7 mph100%29.86 "Hg2 mi
2:50 PM46 °FDrizzle. Mostly cloudy.5 mph93%29.86 "Hg2 mi
1:50 PM46 °FLight rain. More clouds than sun.5 mph93%29.89 "Hg5 mi
12:50 PM48 °FLight rain. More clouds than sun.6 mph87%29.89 "Hg4 mi
11:50 AM46 °FLight rain. More clouds than sun.6 mph93%29.92 "HgN/A
10:50 AM46 °FMore clouds than sun.5 mph93%29.95 "HgN/A
9:50 AM43 °FFog.1 mph100%29.95 "Hg4 mi
8:50 AM43 °FLight rain. Cloudy.5 mph93%29.98 "Hg1 mi
7:50 AM41 °FLight rain. Mostly cloudy.8 mph100%29.98 "Hg2 mi
6:52 AM41 °FFog.7 mph93%29.98 "Hg1 mi
5:50 AM41 °FPassing clouds.8 mph93%30.01 "Hg2 mi
4:50 AM41 °FPassing clouds.9 mph93%30.01 "Hg3 mi
3:50 AM39 °FPassing clouds.8 mph100%30.01 "Hg3 mi
2:50 AM39 °FPassing clouds.7 mph93%30.04 "Hg3 mi
1:50 AM39 °FPassing clouds.6 mph93%30.07 "Hg3 mi
12:50 AM39 °FPartly cloudy.8 mph93%30.09 "Hg2 mi
11:50 PM
Nov 25
39 °FPassing clouds.8 mph93%30.09 "Hg3 mi
10:50 PM37 °FPassing clouds.8 mph100%30.12 "Hg3 mi
9:50 PM37 °FPartly cloudy.8 mph100%30.15 "Hg2 mi
8:50 PM37 °FPassing clouds.6 mph100%30.15 "Hg2 mi
7:50 PM37 °FOvercast.6 mph93%30.18 "Hg1 mi
6:50 PM37 °FPassing clouds.5 mph93%30.18 "Hg1 mi
5:50 PM37 °FPassing clouds.1 mph93%30.18 "Hg2 mi
4:50 PM39 °FFog.1 mph93%30.18 "HgN/A
Weather by CustomWeather, © 2014

See weather overviewHow to use our weather pages